Location: NJAA Observatory
(40.6819°N, 74.8979°W)
Time: 13:04:31
(UTC-04:00)

Vanguard 1 - All Passes

Search period start: 28 September 2016 00:00
Search period end: 08 October 2016 00:00
Orbit: 649 x 3835 km, 34.2° (Epoch: 27 September)

Date Brightness Start Highest point End Pass type
(mag) Time Alt. Az. Time Alt. Az. Time Alt. Az.
28 Sep - 09:23:43 10° SSW 09:28:43 27° SE 09:36:19 10° E daylight
28 Sep - 11:41:12 10° WSW 11:48:42 60° S 12:02:48 10° E daylight
28 Sep - 14:00:34 10° W 14:11:02 60° S 14:29:55 10° ESE daylight
28 Sep - 16:21:41 10° W 16:34:50 39° SSW 16:54:11 10° SSE daylight
28 Sep - 18:49:23 10° WSW 18:58:46 15° SW 19:09:18 10° SSW visible
29 Sep - 09:43:57 10° SW 09:49:21 35° SSE 09:58:07 10° E daylight
29 Sep - 12:02:03 10° WSW 12:09:48 62° S 12:24:28 10° E daylight
29 Sep - 14:21:39 10° W 14:32:20 54° SSW 14:51:09 10° SE daylight
29 Sep - 16:43:25 10° W 16:56:07 32° SSW 17:13:58 10° SSE daylight
30 Sep - 10:04:26 10° SW 10:10:07 43° SSE 10:19:47 10° E daylight
30 Sep - 12:22:57 10° W 12:30:58 62° S 12:46:06 10° ESE daylight
30 Sep - 14:42:47 10° W 14:53:38 48° SSW 15:12:07 10° SE daylight
30 Sep - 17:05:35 10° W 17:17:22 25° SW 17:33:04 10° S daylight
01 Oct - 08:08:43 10° S 08:11:52 16° SE 08:15:46 10° ESE daylight
01 Oct - 10:25:05 10° WSW 10:31:00 50° SSE 10:41:22 10° E daylight
01 Oct - 12:43:53 10° W 12:52:09 59° S 13:07:37 10° ESE daylight
01 Oct - 15:04:03 10° W 15:14:57 41° SSW 15:32:44 10° SE daylight
01 Oct - 17:28:35 10° WSW 17:38:38 18° SW 17:51:08 10° S daylight
02 Oct - 08:28:26 10° SSW 08:32:26 23° SSE 08:37:51 10° E daylight
02 Oct - 10:45:51 10° WSW 10:51:58 55° S 11:02:56 10° E daylight
02 Oct - 13:04:53 10° W 13:13:21 54° S 13:29:00 10° ESE daylight
02 Oct - 15:25:31 10° W 15:36:14 34° SSW 15:52:55 10° SSE daylight
02 Oct - 17:53:42 10° WSW 17:59:54 12° SW 18:06:53 10° SSW daylight
03 Oct - 08:48:40 10° SW 08:53:06 30° SSE 08:59:33 10° E daylight
03 Oct - 11:06:41 10° WSW 11:13:00 57° S 11:24:29 10° ESE daylight
03 Oct - 13:25:56 10° W 13:34:35 48° SSW 13:50:09 10° SE daylight
03 Oct - 15:47:18 10° W 15:57:33 27° SSW 16:12:33 10° SSE daylight
04 Oct - 09:09:09 10° SW 09:13:52 38° SSE 09:21:06 10° E daylight
04 Oct - 11:27:34 10° WSW 11:34:05 56° S 11:45:58 10° ESE daylight
04 Oct - 13:47:04 10° W 13:55:49 42° SSW 14:11:01 10° SE daylight
04 Oct - 16:09:39 10° WSW 16:18:52 21° SSW 16:31:24 10° S daylight
05 Oct - 07:13:23 10° S 07:15:41 13° SE 07:18:13 10° ESE daylight
05 Oct - 09:29:48 10° WSW 09:34:43 45° SSE 09:42:33 10° E daylight
05 Oct - 11:48:30 10° W 11:55:11 53° S 12:07:22 10° ESE daylight
05 Oct - 14:08:22 10° W 14:17:05 35° SSW 14:31:32 10° SE daylight
05 Oct - 16:33:12 10° WSW 16:40:11 15° SW 16:48:49 10° S daylight
06 Oct - 07:33:01 10° SSW 07:36:20 20° SSE 07:40:18 10° ESE daylight
06 Oct - 09:50:35 10° WSW 09:55:40 49° S 10:03:58 10° E daylight
06 Oct - 12:09:29 10° W 12:16:19 48° S 12:28:36 10° ESE daylight
06 Oct - 14:29:54 10° W 14:38:22 28° SSW 14:51:33 10° SSE daylight
07 Oct - 07:53:14 10° SW 07:57:04 27° SSE 08:01:55 10° E daylight
07 Oct - 10:11:26 10° WSW 10:16:38 51° S 10:25:21 10° ESE daylight
07 Oct - 12:30:32 10° W 12:37:29 41° SSW 12:49:37 10° SE daylight
07 Oct - 14:51:51 10° WSW 14:59:40 22° SSW 15:10:56 10° SSE daylight
